Simultaneous Nadir Overpasses (SNOs) Predictions

Prediction of SNOs between TERRA and METOP-C Satellite Orbit:

Table of predicted SNOs for the next 14.0 days since TLE Epoch: 6/16/2022
Index Date (TERRA) Time (TERRA) Lat,Lon (TERRA) SZA (TERRA ) Date (METOP-C) Time (METOP-C) Lat,Lon (METOP-C) SZA (METOP-C ) Distance(km) Time Diff (sec)
1 06/18/2022 08:57:52 81.19, 86.79 60.05 06/18/2022 08:57:41 81.19, 86.85 60.05 0.91 11
2 06/18/2022 09:47:18 -81.21,-105.28 119.91 06/18/2022 09:48:21 -81.21,-105.15 119.87 2.31 63
3 06/21/2022 03:42:36 -81.16, -14.80 120.06 06/21/2022 03:41:25 -81.16, -14.84 120.10 0.64 71
4 06/21/2022 04:32:01 81.19, 153.25 60.00 06/21/2022 04:32:03 81.18, 153.13 59.99 2.19 2
5 06/23/2022 23:16:46 -81.16, 51.55 120.07 06/23/2022 23:15:48 -81.16, 51.45 120.11 1.70 58
6 06/24/2022 00:06:11 81.18,-140.44 59.99 06/24/2022 00:06:25 81.19,-140.26 60.02 3.14 14
7 06/26/2022 18:50:55 -81.17, 118.12 119.99 06/26/2022 18:50:10 -81.17, 118.05 120.02 1.16 45
8 06/26/2022 19:40:20 81.19, -73.89 60.07 06/26/2022 19:40:48 81.18, -74.07 60.06 3.26 28
9 06/29/2022 14:25:03 -81.17,-175.44 119.88 06/29/2022 14:24:31 -81.17,-175.40 119.89 0.84 32



Historial Predications of SNOs between TERRA and METOP-C
